Location: Kawakawa
(35.3830°S, 174.0670°E)
Time: 14:48:19
(UTC+13:00)

Cosmos 1939 Rocket - Pass Details

Date: 24 January 2019
Orbit: 532 x 586 km, 97.5° (Epoch: 19 February)

Event Time Altitude Azimuth Distance (km) Brightness Sun altitude
Rises 21:28:57 0° 168° (SSE) 2,846 6.7 -10.0°
Reaches altitude 10° 21:31:08 10° 167° (SSE) 1,940 5.9 -10.4°
Maximum altitude 21:35:22 84° 78° (ENE) 602 2.9 -11.1°
Drops below altitude 10° 21:39:31 10° 349° (N) 1,910 5.3 -11.8°
Sets 21:41:39 0° 349° (NNW) 2,798 6.2 -12.2°
